Weather History for Muscle Shoals, AL

Change the Weather History Date:

Monday, September 2, 2013

  Actual Average Record
Temperature  
Mean Temperature 79 °F 78 °F  
Max Temperature 86 °F 89 °F 101 °F (1980)
Min Temperature 71 °F 66 °F 48 °F (1919)
Degree Days  
Heating Degree Days 0 0  
Month to date heating degree days 0 0  
Since 1 July heating degree days 0 0  
Cooling Degree Days 14 13  
Month to date cooling degree days 31 26  
Year to date cooling degree days 1512 1569  
Growing Degree Days 26 (Base 50)    
Moisture  
Dew Point 70 °F    
Average Humidity 74    
Maximum Humidity 90    
Minimum Humidity 58    
Precipitation  
Precipitation 0.48 in 0.11 in 1.69 in (1937)
Month to date precipitation 0.48 0.22  
Year to date precipitation 43.37 35.93  
Snow  
Snow 0.00 in - - ()
Month to date snowfall 0.0  
Since 1 July snowfall 0.0  
Since 1 September snowfall 0.0  
Snow Depth 0.00 in    
Sea Level Pressure  
Sea Level Pressure 29.91 in    
Wind  
Wind Speed 6 mph (SW)    
Max Wind Speed 20 mph    
Max Gust Speed 24 mph    
Visibility 10 miles    
Events Rain , Thunderstorm    
T = Trace of Precipitation, MM = Missing Value Source: NWS Daily Summary

Daily Weather History Graph

Daily Weather History Graph

Search for Another Location

Airport:

Trip Planner

Search our weather history database for the weather conditions in past years. The results will help you decide how hot, cold, wet, or windy it might be!

Date:

Astronomy

Sep. 02, 2013 Rise Set
Actual Time 6:24 AM CDT 7:15 PM CDT
Civil Twilight 5:58 AM CDT 7:40 PM CDT
Nautical Twilight 5:28 AM CDT 8:11 PM CDT
Astronomical Twilight 4:56 AM CDT 8:42 PM CDT
Moon 3:45 AM CDT (9/2) 5:25 PM CDT (9/2)
Length of Visible Light 13h 42m
Length of Day
12h 50m
Waning Crescent, 8% of the Moon is Illuminated
Sep 2
Waning Crescent
Sep 5
New
Sep 12
First Quarter
Sep 19
Full
Sep 26
Last Quarter

Hourly Weather History & Observations

Time (CDT) Temp. Heat Index Dew Point Humidity Pressure Visibility Wind Dir Wind Speed Gust Speed Precip Events Conditions
12:53 AM 75.0 °F - 69.1 °F 82% 29.87 in 10.0 mi East 3.5 mph - N/A   Clear
1:53 AM 75.0 °F - 70.0 °F 84% 29.86 in 10.0 mi East 3.5 mph - N/A   Clear
2:11 AM 75.2 °F - 69.8 °F 83% 29.87 in 10.0 mi East 3.5 mph - N/A Thunderstorm Clear
2:27 AM 75.2 °F - 69.8 °F 83% 29.89 in 10.0 mi East 3.5 mph - N/A   Scattered Clouds
2:40 AM 75.2 °F - 69.8 °F 83% 29.91 in 10.0 mi North 13.8 mph 21.9 mph N/A Thunderstorm Mostly Cloudy
2:53 AM 75.0 °F - 70.0 °F 84% 29.90 in 10.0 mi North 11.5 mph 19.6 mph 0.02 in Rain , Thunderstorm Thunderstorms and Rain
3:01 AM 73.4 °F - 68.0 °F 83% 29.93 in 10.0 mi North 8.1 mph 17.3 mph 0.02 in Rain , Thunderstorm Rain
3:22 AM 71.6 °F - 68.0 °F 88% 29.94 in 10.0 mi North 6.9 mph 17.3 mph 0.08 in Rain , Thunderstorm Thunderstorms and Rain
3:31 AM 71.6 °F - 69.8 °F 94% 29.94 in 10.0 mi Calm Calm - 0.14 in Rain , Thunderstorm Heavy Thunderstorms and Rain
3:45 AM 71.6 °F - 69.8 °F 94% 29.94 in 10.0 mi Calm Calm - 0.21 in Rain , Thunderstorm Heavy Thunderstorms and Rain
3:53 AM 72.0 °F - 68.0 °F 87% 29.92 in 10.0 mi East 5.8 mph - 0.22 in Rain , Thunderstorm Thunderstorms and Rain
4:17 AM 73.4 °F - 69.8 °F 88% 29.93 in 10.0 mi WSW 8.1 mph - 0.04 in Rain , Thunderstorm Rain
4:32 AM 71.6 °F - 69.8 °F 94% 29.93 in 10.0 mi WSW 4.6 mph - 0.07 in Rain Rain
4:41 AM 71.6 °F - 69.8 °F 94% 29.92 in 10.0 mi South 9.2 mph - 0.10 in Rain , Thunderstorm Rain
4:53 AM 72.0 °F - 69.1 °F 91% 29.91 in 10.0 mi Calm Calm - 0.13 in Rain , Thunderstorm Rain
5:53 AM 72.0 °F - 66.9 °F 84% 29.91 in 10.0 mi SW 8.1 mph - 0.10 in Rain , Thunderstorm Light Rain
6:26 AM 71.6 °F - 68.0 °F 88% 29.93 in 10.0 mi SSW 6.9 mph - N/A   Overcast
6:53 AM 72.0 °F - 68.0 °F 87% 29.91 in 10.0 mi South 3.5 mph - N/A   Overcast
7:53 AM 73.0 °F - 68.0 °F 84% 29.93 in 10.0 mi SSW 8.1 mph - 0.00 in   Scattered Clouds
8:53 AM 78.1 °F - 70.0 °F 76% 29.93 in 10.0 mi SSW 8.1 mph - N/A   Clear
9:53 AM 82.0 °F 85.9 °F 70.0 °F 67% 29.95 in 10.0 mi South 10.4 mph - N/A   Clear
10:53 AM 82.9 °F 87.0 °F 70.0 °F 65% 29.96 in 10.0 mi SSW 9.2 mph - N/A   Partly Cloudy
11:53 AM 82.9 °F 85.4 °F 66.9 °F 58% 29.95 in 10.0 mi SW 9.2 mph - N/A   Clear
12:53 PM 79.0 °F - 70.0 °F 74% 29.96 in 10.0 mi WSW 5.8 mph - N/A Thunderstorm Scattered Clouds
1:53 PM 79.0 °F - 70.0 °F 74% 29.95 in 10.0 mi West 9.2 mph - 0.00 in Thunderstorm Thunderstorm
2:23 PM 78.8 °F - 71.6 °F 78% 29.92 in 10.0 mi West 11.5 mph - 0.01 in Rain Light Rain
2:53 PM 82.0 °F 87.4 °F 73.0 °F 74% 29.88 in 10.0 mi West 12.7 mph 16.1 mph 0.01 in   Partly Cloudy
3:53 PM 82.9 °F 88.8 °F 73.0 °F 72% 29.88 in 10.0 mi WSW 6.9 mph - N/A   Clear
4:53 PM 82.9 °F 88.8 °F 73.0 °F 72% 29.88 in 10.0 mi SW 5.8 mph - N/A   Partly Cloudy
5:53 PM 82.0 °F 87.4 °F 73.0 °F 74% 29.88 in 10.0 mi WSW 5.8 mph - N/A   Clear
6:53 PM 81.0 °F 85.2 °F 72.0 °F 74% 29.85 in 10.0 mi SSW 6.9 mph - N/A   Clear
7:53 PM 78.1 °F - 72.0 °F 81% 29.88 in 10.0 mi Calm Calm - N/A   Scattered Clouds
8:53 PM 77.0 °F - 72.0 °F 84% 29.91 in 10.0 mi SW 3.5 mph - N/A   Mostly Cloudy
9:53 PM 78.1 °F - 72.0 °F 81% 29.91 in 10.0 mi WSW 3.5 mph - N/A   Mostly Cloudy
10:53 PM 77.0 °F - 72.0 °F 84% 29.91 in 10.0 mi WSW 3.5 mph - N/A   Partly Cloudy
11:53 PM 75.9 °F - 72.0 °F 87% 29.91 in 10.0 mi SW 3.5 mph - N/A   Clear